sat.trackr.live / text

‹ back to catalog

YAOGAN-36 02B

NORAD 54043 · 2022-133B

PAYLOAD ACTIVE UNKNOWN

§ Identity

Operator
Country
PRC
Launch date
2022-10-14
Launch site
XICLF
Launch vehicle
Mass (kg)
RCS (m²)

External: N2YO · Heavens-Above · Gunter

§ Orbital elements

Epoch: 2026-05-24T18:35:28.476960Z

Period
93.99 min
Inclination
34.9955°
Eccentricity
0.0004424
Mean motion
15.32001905 rev/d
Perigee alt
466.8 km
Apogee alt
472.9 km
Semi-major
6,848.0 km
B*
3.5956e-4
RAAN
259.6284°
Arg perigee
232.8245°
Mean anomaly
127.2069°
Rev number
20,125

§ Raw data

YAOGAN-36 02B1 54043U 22133B   26144.77463515  .00011382  00000+0  35956-3 0  99972 54043  34.9955 259.6284 0004424 232.8245 127.2069 15.32001905201252

JSON: /api/v1/satellites/54043 · /tle

For live sub-satellite position, see the globe view (requires WebGL).

§ Visibility from observer

Set your observer location to see the next 7 days of passes ≥ 10°. The values pass through the URL so the page stays shareable.

No JS? Fill the form by hand. The geolocation button needs JavaScript.